Tracking 30995 objects as of 5-Jul-2025
HD Live streaming from Space Station
objects crossing your sky now

PSLV DEB

Track PSLV DEB now!
10-day predictions


NORAD ID: 27152
Int'l Code: 2001-049CY
Perigee: 547.6 km
Apogee: 581.6 km
Inclination: 98.0 °
Period: 95.8 minutes
Semi major axis: 6935 km
RCS: 0.063 m2 (small)
Launch date: October 22, 2001
Source: India (IND)
Launch site: SRIHARIKOTA (SRI)

Note: This is SATELLITE DEBRIS
Your satellite tracking list
Your tracking list is empty




NASA's NSSDC Master Catalog

Two Line Element Set (TLE):
1 27152U 01049CY  25186.18698146  .00007536  00000-0  56014-3 0  9996
2 27152  98.0133 259.6194 0024502  91.9078 268.4952 15.03063276268832
Source of the keplerian elements: AFSPC